COSMOS 2476 (744) (37867 NORAD) Tracking and Keplerian Element Data

This shows tracking and keplerian element data for the satellite.

Feedback or suggestion? Click here.




ElementValue
Catalog37867
NameCOSMOS 2476 (744)
Epoch Orbit5539
Epoch Day348.80984609
Epoch Year2018
RAAN165.7792
Inclination64.4924
Eccentricity0.0016525
Argument of Perigee235.6402
Mean Anonmoly319.8092
Mean Motion2.13101855
Decay Rate1.08E-06
L11 37867U 11064A 18348.80984609 .00000108 00000-0 00000-0 0 9990
L22 37867 64.4924 165.7792 0016525 235.6402 319.8092 2.13101855 55390

Live tracking and technical data element details for COSMOS 2476 (744) (NORAD 37867). COSMOS 2476 (744) can be tracked NOW for your location showing map with azimuth and elevation plus other details from your city location.

Track the satellite on the map from your city or location and see movement details for azimuth, elevation, latitude, longitude, range, height, and movement on the map or in text.







IsCatalogInMostPopularTable: catalog: 37867, numindb: 61
Update: records affected: 1



GetName: 37867 COSMOS 2476 (744)

Hit Count: updated at: Sun, 16 Dec 2018 10:06:19 GMT